When you browse on this site, cookies collect data to enhance your experience and personalize the content and advertising you see.
Visit our Privacy Policy to learn more. By continuing to use the site, you agree to this use of cookies and data.
  • In Netherlands
  • List of Countries
  • For 7 days
  • Water Temperature
  • Satellite Maps
  • Weather Map
  • Weather Widgets
  • user-avatar
    Login

    Hourly Weather Pabna

    Today, 25 March, Monday

    Time Temperature Precipitation Wind Pressure Humidity
    00:00 +28°C° 0 mm 2 mps 755 mmHg 20%
    01:00 +27°C° 0 mm 2 mps 755 mmHg 22%
    02:00 +27°C° 0 mm 2 mps 755 mmHg 24%
    03:00 +26°C° 0 mm 2 mps 755 mmHg 26%
    04:00 +25°C° 0 mm 2 mps 755 mmHg 28%
    05:00 +25°C° 0 mm 2 mps 755 mmHg 31%
    06:00 +25°C° 0 mm 2 mps 755 mmHg 34%
    07:00 +27°C° 0 mm 3 mps 756 mmHg 31%
    08:00 +30°C° 0 mm 3 mps 756 mmHg 29%
    09:00 +33°C° 0 mm 4 mps 757 mmHg 26%
    10:00 +35°C° 0 mm 3 mps 757 mmHg 22%
    11:00 +36°C° 0 mm 3 mps 756 mmHg 17%
    12:00 +38°C° 0 mm 3 mps 756 mmHg 13%
    13:00 +39°C° 0 mm 3 mps 755 mmHg 12%
    14:00 +39°C° 0 mm 3 mps 754 mmHg 11%
    15:00 +40°C° 0 mm 3 mps 753 mmHg 10%
    16:00 +39°C° 0 mm 2 mps 753 mmHg 12%
    17:00 +38°C° 0 mm 2 mps 753 mmHg 14%
    18:00 +37°C° 0 mm 2 mps 753 mmHg 16%
    19:00 +35°C° 0 mm 2 mps 753 mmHg 17%
    20:00 +34°C° 0 mm 2 mps 754 mmHg 18%
    21:00 +32°C° 0 mm 2 mps 754 mmHg 19%
    22:00 +31°C° 0 mm 2 mps 754 mmHg 20%
    23:00 +31°C° 0 mm 2 mps 755 mmHg 21%

    Tomorrow, 26 March, Tuesday

    Time Temperature Precipitation Wind Pressure Humidity
    00:00 +30°C° 0 mm 2 mps 755 mmHg 23%
    01:00 +29°C° 0 mm 1 mps 754 mmHg 23%
    02:00 +29°C° 0 mm 1 mps 754 mmHg 24%
    03:00 +28°C° 0 mm 1 mps 754 mmHg 24%
    04:00 +28°C° 0 mm 2 mps 754 mmHg 25%
    05:00 +27°C° 0 mm 2 mps 754 mmHg 27%
    06:00 +27°C° 0 mm 3 mps 754 mmHg 28%
    07:00 +29°C° 0 mm 3 mps 755 mmHg 27%
    08:00 +31°C° 0 mm 3 mps 756 mmHg 26%
    09:00 +34°C° 0 mm 3 mps 756 mmHg 25%
    10:00 +36°C° 0 mm 3 mps 756 mmHg 22%
    11:00 +38°C° 0 mm 3 mps 756 mmHg 19%
    12:00 +40°C° 0 mm 3 mps 756 mmHg 16%
    13:00 +40°C° 0 mm 3 mps 755 mmHg 16%
    14:00 +42°C° 0 mm 3 mps 754 mmHg 15%
    15:00 +42°C° 0 mm 3 mps 754 mmHg 14%
    16:00 +40°C° 0 mm 3 mps 754 mmHg 16%
    17:00 +39°C° 0 mm 3 mps 753 mmHg 18%
    18:00 +38°C° 0 mm 2 mps 753 mmHg 20%
    19:00 +36°C° 0.8 mm 3 mps 754 mmHg 26%
    20:00 +33°C° 0.8 mm 4 mps 755 mmHg 32%
    21:00 +30°C° 0.8 mm 4 mps 756 mmHg 38%
    22:00 +30°C° 0.5 mm 3 mps 756 mmHg 39%
    23:00 +30°C° 0.5 mm 3 mps 756 mmHg 39%

    Day after tomorrow, 27 March, Wednesday

    Time Temperature Precipitation Wind Pressure Humidity
    00:00 +29°C° 0.5 mm 2 mps 756 mmHg 40%
    01:00 +29°C° 0 mm 2 mps 755 mmHg 40%
    02:00 +29°C° 0 mm 2 mps 755 mmHg 41%
    03:00 +28°C° 0 mm 2 mps 755 mmHg 41%
    04:00 +28°C° 0 mm 2 mps 755 mmHg 44%
    05:00 +27°C° 0 mm 2 mps 756 mmHg 47%
    06:00 +27°C° 0 mm 2 mps 756 mmHg 51%
    07:00 +28°C° 0 mm 3 mps 757 mmHg 48%
    08:00 +29°C° 0 mm 4 mps 757 mmHg 46%
    09:00 +30°C° 0 mm 4 mps 758 mmHg 44%
    10:00 +33°C° 0 mm 4 mps 758 mmHg 38%
    11:00 +34°C° 0 mm 4 mps 757 mmHg 33%
    12:00 +36°C° 0 mm 4 mps 757 mmHg 28%
    13:00 +37°C° 0 mm 4 mps 756 mmHg 26%
    14:00 +37°C° 0 mm 3 mps 755 mmHg 24%
    15:00 +38°C° 0 mm 2 mps 754 mmHg 22%
    16:00 +37°C° 0.2 mm 2 mps 754 mmHg 25%
    17:00 +35°C° 0.2 mm 2 mps 754 mmHg 27%
    18:00 +34°C° 0.2 mm 2 mps 754 mmHg 30%
    19:00 +32°C° 0 mm 2 mps 754 mmHg 35%
    20:00 +31°C° 0 mm 3 mps 755 mmHg 41%
    21:00 +29°C° 0 mm 4 mps 756 mmHg 46%
    22:00 +29°C° 0 mm 3 mps 756 mmHg 48%
    23:00 +29°C° 0 mm 3 mps 756 mmHg 51%

    28 March, Thursday

    Time Temperature Precipitation Wind Pressure Humidity
    00:00 +28°C° 0 mm 3 mps 756 mmHg 53%
    01:00 +28°C° 0 mm 2 mps 756 mmHg 55%
    02:00 +27°C° 0 mm 2 mps 755 mmHg 57%
    03:00 +27°C° 0 mm 2 mps 755 mmHg 58%
    04:00 +26°C° 0 mm 2 mps 755 mmHg 60%
    05:00 +26°C° 0 mm 2 mps 756 mmHg 63%
    06:00 +25°C° 0 mm 1 mps 756 mmHg 65%
    07:00 +27°C° 0 mm 2 mps 757 mmHg 59%
    08:00 +29°C° 0 mm 2 mps 757 mmHg 52%
    09:00 +30°C° 0 mm 2 mps 758 mmHg 46%
    10:00 +32°C° 0 mm 2 mps 758 mmHg 41%
    11:00 +34°C° 0 mm 2 mps 757 mmHg 36%
    12:00 +36°C° 0 mm 2 mps 757 mmHg 31%
    13:00 +36°C° 0 mm 2 mps 756 mmHg 29%
    14:00 +37°C° 0 mm 2 mps 755 mmHg 27%
    15:00 +37°C° 0 mm 2 mps 754 mmHg 25%
    16:00 +37°C° 0 mm 2 mps 753 mmHg 26%
    17:00 +36°C° 0 mm 2 mps 753 mmHg 27%
    18:00 +36°C° 0 mm 2 mps 753 mmHg 28%
    19:00 +35°C° 0 mm 2 mps 754 mmHg 30%
    20:00 +32°C° 0 mm 2 mps 754 mmHg 33%
    21:00 +31°C° 0 mm 3 mps 755 mmHg 35%
    22:00 +31°C° 0 mm 2 mps 755 mmHg 36%
    23:00 +30°C° 0 mm 2 mps 754 mmHg 38%

    29 March, Friday

    Time Temperature Precipitation Wind Pressure Humidity
    00:00 +30°C° 0 mm 2 mps 754 mmHg 39%
    01:00 +29°C° 0 mm 2 mps 754 mmHg 41%
    02:00 +29°C° 0 mm 2 mps 753 mmHg 44%
    03:00 +28°C° 0 mm 2 mps 753 mmHg 46%
    04:00 +28°C° 0 mm 2 mps 753 mmHg 50%
    05:00 +28°C° 0 mm 2 mps 753 mmHg 54%
    06:00 +27°C° 0 mm 2 mps 754 mmHg 59%
    07:00 +29°C° 0 mm 3 mps 754 mmHg 53%
    08:00 +32°C° 0 mm 4 mps 755 mmHg 47%
    09:00 +34°C° 0 mm 4 mps 756 mmHg 41%
    10:00 +36°C° 0 mm 4 mps 755 mmHg 36%
    11:00 +37°C° 0 mm 4 mps 755 mmHg 31%
    12:00 +38°C° 0 mm 3 mps 755 mmHg 26%
    13:00 +39°C° 0 mm 3 mps 754 mmHg 24%
    14:00 +39°C° 0 mm 2 mps 753 mmHg 23%
    15:00 +39°C° 0 mm 2 mps 752 mmHg 21%
    16:00 +39°C° 0 mm 2 mps 752 mmHg 23%
    17:00 +38°C° 0 mm 2 mps 752 mmHg 24%
    18:00 +36°C° 0 mm 1 mps 752 mmHg 26%
    19:00 +36°C° 0 mm 2 mps 752 mmHg 27%
    20:00 +36°C° 0 mm 2 mps 753 mmHg 28%
    21:00 +35°C° 0 mm 3 mps 754 mmHg 30%
    22:00 +34°C° 0 mm 3 mps 754 mmHg 36%
    23:00 +33°C° 0 mm 4 mps 754 mmHg 42%

    30 March, Saturday

    Time Temperature Precipitation Wind Pressure Humidity
    00:00 +32°C° 0 mm 4 mps 754 mmHg 47%
    01:00 +30°C° 0 mm 4 mps 754 mmHg 51%
    02:00 +29°C° 0 mm 3 mps 753 mmHg 55%
    03:00 +29°C° 0 mm 3 mps 753 mmHg 60%
    04:00 +28°C° 0 mm 3 mps 753 mmHg 63%
    05:00 +28°C° 0 mm 3 mps 754 mmHg 67%
    06:00 +28°C° 0 mm 3 mps 754 mmHg 70%
    07:00 +29°C° 0 mm 3 mps 755 mmHg 64%
    08:00 +31°C° 0 mm 3 mps 755 mmHg 57%
    09:00 +34°C° 0 mm 3 mps 756 mmHg 51%
    10:00 +35°C° 0 mm 3 mps 755 mmHg 44%
    11:00 +37°C° 0 mm 4 mps 755 mmHg 37%
    12:00 +40°C° 0 mm 4 mps 754 mmHg 30%
    13:00 +40°C° 0 mm 4 mps 754 mmHg 30%
    14:00 +38°C° 0 mm 3 mps 753 mmHg 30%
    15:00 +38°C° 0 mm 3 mps 752 mmHg 29%
    16:00 +38°C° 0 mm 4 mps 752 mmHg 30%
    17:00 +37°C° 0 mm 4 mps 752 mmHg 31%
    18:00 +37°C° 0 mm 4 mps 752 mmHg 32%
    19:00 +36°C° 0 mm 5 mps 752 mmHg 35%
    20:00 +35°C° 0 mm 5 mps 753 mmHg 38%
    21:00 +34°C° 0 mm 6 mps 753 mmHg 41%
    22:00 +33°C° 0 mm 6 mps 753 mmHg 46%
    23:00 +32°C° 0 mm 5 mps 753 mmHg 52%
    Show more